Time,TemperatureF,DewpointF,PressureIn,WindDirection,WindDirectionDegrees,WindSpeedMPH,WindSpeedGustMPH,Humidity,HourlyPrecipIn,Conditions,Clouds,dailyrainin,SoftwareType,DateUTC
2013-09-23 00:01:00,55.2,48.8,29.83,NW,320,5.0,7.0,79,0.00,,---,0.00,VWS V14.01,2013-09-23 04:01:00,
2013-09-23 00:06:00,55.1,48.7,29.83,WNW,298,3.0,14.0,79,0.00,,---,0.00,VWS V14.01,2013-09-23 04:06:00,
2013-09-23 00:11:00,54.9,48.5,29.83,NW,306,2.0,13.0,79,0.00,,---,0.00,VWS V14.01,2013-09-23 04:11:00,
2013-09-23 00:16:00,54.9,48.9,29.83,NNW,327,4.0,16.0,80,0.00,,---,0.00,VWS V14.01,2013-09-23 04:16:00,
2013-09-23 00:21:00,54.9,48.9,29.83,NW,315,10.0,11.0,80,0.00,,---,0.00,VWS V14.01,2013-09-23 04:21:00,
2013-09-23 00:26:00,54.9,48.5,29.84,NW,308,5.0,11.0,79,0.00,,---,0.00,VWS V14.01,2013-09-23 04:26:00,
2013-09-23 00:31:00,54.7,48.7,29.83,WNW,300,6.0,13.0,80,0.00,,---,0.00,VWS V14.01,2013-09-23 04:31:00,
2013-09-23 00:38:00,54.5,48.5,29.83,WNW,289,2.0,9.0,80,0.00,,---,0.00,VWS V14.01,2013-09-23 04:38:00,
2013-09-23 00:43:00,54.2,48.5,29.84,WNW,287,2.0,11.0,81,0.00,,---,0.00,VWS V14.01,2013-09-23 04:43:00,
2013-09-23 00:48:00,54.1,48.7,29.84,NW,307,2.0,10.0,82,0.00,,---,0.00,VWS V14.01,2013-09-23 04:48:00,
2013-09-23 00:53:00,54.0,48.6,29.84,NW,322,9.0,12.0,82,0.00,,---,0.00,VWS V14.01,2013-09-23 04:53:00,
2013-09-23 00:58:00,53.8,48.4,29.84,NW,317,5.0,13.0,82,0.00,,---,0.00,VWS V14.01,2013-09-23 04:58:00,
2013-09-23 01:03:00,53.7,48.3,29.84,WNW,301,3.0,11.0,82,0.00,,---,0.00,VWS V14.01,2013-09-23 05:03:00,
2013-09-23 01:08:00,53.5,48.5,29.84,NW,304,0.0,7.0,83,0.00,,---,0.00,VWS V14.01,2013-09-23 05:08:00,
2013-09-23 01:13:00,53.3,48.3,29.84,NW,315,2.0,10.0,83,0.00,,---,0.00,VWS V14.01,2013-09-23 05:13:00,
2013-09-23 01:18:00,53.2,48.2,29.85,WNW,302,5.0,11.0,83,0.00,,---,0.00,VWS V14.01,2013-09-23 05:18:00,
2013-09-23 01:23:00,53.1,48.4,29.85,WNW,301,5.0,16.0,84,0.00,,---,0.00,VWS V14.01,2013-09-23 05:23:00,
2013-09-23 01:28:00,53.0,48.3,29.85,NW,310,2.0,11.0,84,0.00,,---,0.00,VWS V14.01,2013-09-23 05:28:00,
2013-09-23 01:33:00,52.9,48.2,29.86,WNW,301,6.0,11.0,84,0.00,,---,0.00,VWS V14.01,2013-09-23 05:33:00,
2013-09-23 01:38:00,52.9,48.2,29.85,NNW,328,9.0,15.0,84,0.00,,---,0.00,VWS V14.01,2013-09-23 05:38:00,
2013-09-23 01:43:00,53.0,48.3,29.85,NW,318,11.0,12.0,84,0.00,,---,0.00,VWS V14.01,2013-09-23 05:43:00,
2013-09-23 01:48:00,52.9,48.2,29.85,NW,307,5.0,13.0,84,0.00,,---,0.00,VWS V14.01,2013-09-23 05:48:00,
2013-09-23 01:53:00,52.8,48.1,29.85,NW,304,6.0,20.0,84,0.00,,---,0.00,VWS V14.01,2013-09-23 05:53:00,
2013-09-23 01:58:00,52.8,48.1,29.85,WNW,303,7.0,12.0,84,0.00,,---,0.00,VWS V14.01,2013-09-23 05:58:00,
2013-09-23 02:03:00,52.8,48.4,29.85,NW,306,9.0,13.0,85,0.00,,---,0.00,VWS V14.01,2013-09-23 06:03:00,
2013-09-23 02:10:00,52.6,48.2,29.85,WSW,258,4.0,13.0,85,0.00,,---,0.00,VWS V14.01,2013-09-23 06:10:00,
2013-09-23 02:15:00,52.5,48.1,29.85,NW,322,6.0,7.0,85,0.00,,---,0.00,VWS V14.01,2013-09-23 06:15:00,
2013-09-23 02:20:00,52.4,47.7,29.85,WNW,285,7.0,8.0,84,0.00,,---,0.00,VWS V14.01,2013-09-23 06:20:00,
2013-09-23 02:25:00,52.3,47.6,29.85,NW,314,4.0,6.0,84,0.00,,---,0.00,VWS V14.01,2013-09-23 06:25:00,
2013-09-23 02:30:00,52.2,47.8,29.86,West,276,6.0,9.0,85,0.00,,---,0.00,VWS V14.01,2013-09-23 06:30:00,
2013-09-23 02:35:00,52.0,47.6,29.86,NW,326,3.0,9.0,85,0.00,,---,0.00,VWS V14.01,2013-09-23 06:35:00,
2013-09-23 02:40:00,51.8,47.8,29.86,NW,326,4.0,9.0,86,0.00,,---,0.00,VWS V14.01,2013-09-23 06:40:00,
2013-09-23 02:45:00,51.7,47.7,29.86,NW,304,5.0,6.0,86,0.00,,---,0.00,VWS V14.01,2013-09-23 06:45:00,
2013-09-23 02:50:00,51.5,47.8,29.86,NW,316,3.0,4.0,87,0.00,,---,0.00,VWS V14.01,2013-09-23 06:50:00,
2013-09-23 02:55:00,51.4,47.4,29.86,NW,306,5.0,7.0,86,0.00,,---,0.00,VWS V14.01,2013-09-23 06:55:00,
2013-09-23 03:00:00,51.3,47.3,29.86,NNW,328,6.0,6.0,86,0.00,,---,0.00,VWS V14.01,2013-09-23 07:00:00,
2013-09-23 03:05:00,51.2,47.2,29.86,NW,311,6.0,6.0,86,0.00,,---,0.00,VWS V14.01,2013-09-23 07:05:00,
2013-09-23 03:10:00,51.0,47.0,29.86,WNW,300,3.0,4.0,86,0.00,,---,0.00,VWS V14.01,2013-09-23 07:10:00,
2013-09-23 03:15:00,50.9,46.9,29.87,WNW,292,3.0,4.0,86,0.00,,---,0.00,VWS V14.01,2013-09-23 07:15:00,
2013-09-23 03:20:00,50.8,46.8,29.87,WNW,287,6.0,13.0,86,0.00,,---,0.00,VWS V14.01,2013-09-23 07:20:00,
2013-09-23 03:25:00,50.7,46.7,29.87,WNW,297,3.0,3.0,86,0.00,,---,0.00,VWS V14.01,2013-09-23 07:25:00,
2013-09-23 03:30:00,50.6,46.3,29.87,NW,322,2.0,5.0,85,0.00,,---,0.00,VWS V14.01,2013-09-23 07:30:00,
2013-09-23 03:36:00,50.5,46.2,29.87,WNW,303,6.0,8.0,85,0.00,,---,0.00,VWS V14.01,2013-09-23 07:36:00,
2013-09-23 03:41:00,50.5,46.2,29.87,NW,320,6.0,12.0,85,0.00,,---,0.00,VWS V14.01,2013-09-23 07:41:00,
2013-09-23 03:46:00,50.4,45.8,29.87,NW,318,5.0,5.0,84,0.00,,---,0.00,VWS V14.01,2013-09-23 07:46:00,
2013-09-23 03:51:00,50.4,45.8,29.87,NW,307,6.0,9.0,84,0.00,,---,0.00,VWS V14.01,2013-09-23 07:51:00,
2013-09-23 03:56:00,50.3,46.0,29.87,WNW,301,0.0,5.0,85,0.00,,---,0.00,VWS V14.01,2013-09-23 07:56:00,
2013-09-23 04:01:00,50.1,45.5,29.87,NNW,327,3.0,9.0,84,0.00,,---,0.00,VWS V14.01,2013-09-23 08:01:00,
2013-09-23 04:06:00,50.0,45.4,29.88,West,280,3.0,15.0,84,0.00,,---,0.00,VWS V14.01,2013-09-23 08:06:00,
2013-09-23 04:11:00,50.0,45.4,29.87,NW,313,5.0,5.0,84,0.00,,---,0.00,VWS V14.01,2013-09-23 08:11:00,
2013-09-23 04:16:00,49.9,45.3,29.88,WNW,296,6.0,10.0,84,0.00,,---,0.00,VWS V14.01,2013-09-23 08:16:00,
2013-09-23 04:21:00,49.9,45.6,29.88,NW,307,7.0,13.0,85,0.00,,---,0.00,VWS V14.01,2013-09-23 08:21:00,
2013-09-23 04:26:00,49.8,45.2,29.88,WNW,292,7.0,12.0,84,0.00,,---,0.00,VWS V14.01,2013-09-23 08:26:00,
2013-09-23 04:31:00,49.7,45.1,29.88,WNW,300,3.0,3.0,84,0.00,,---,0.00,VWS V14.01,2013-09-23 08:31:00,
2013-09-23 04:36:00,49.6,44.7,29.88,WNW,295,0.0,4.0,83,0.00,,---,0.00,VWS V14.01,2013-09-23 08:36:00,
2013-09-23 04:41:00,49.5,44.9,29.88,NW,307,3.0,9.0,84,0.00,,---,0.00,VWS V14.01,2013-09-23 08:41:00,
2013-09-23 04:47:00,49.5,44.9,29.88,NW,322,1.0,9.0,84,0.00,,---,0.00,VWS V14.01,2013-09-23 08:47:00,
2013-09-23 04:52:00,49.5,44.9,29.89,NW,316,3.0,10.0,84,0.00,,---,0.00,VWS V14.01,2013-09-23 08:52:00,
2013-09-23 04:57:00,49.4,44.8,29.88,NW,311,2.0,5.0,84,0.00,,---,0.00,VWS V14.01,2013-09-23 08:57:00,
2013-09-23 05:02:00,49.3,44.4,29.89,WNW,289,9.0,12.0,83,0.00,,---,0.00,VWS V14.01,2013-09-23 09:02:00,
2013-09-23 05:07:00,49.2,44.6,29.89,WNW,289,7.0,10.0,84,0.00,,---,0.00,VWS V14.01,2013-09-23 09:07:00,
2013-09-23 05:12:00,49.1,44.2,29.89,NW,310,0.0,11.0,83,0.00,,---,0.00,VWS V14.01,2013-09-23 09:12:00,
2013-09-23 05:17:00,49.1,44.2,29.89,WNW,295,6.0,12.0,83,0.00,,---,0.00,VWS V14.01,2013-09-23 09:17:00,
2013-09-23 05:22:00,49.1,44.2,29.89,WNW,282,2.0,11.0,83,0.00,,---,0.00,VWS V14.01,2013-09-23 09:22:00,
2013-09-23 05:27:00,49.0,44.1,29.89,West,276,2.0,11.0,83,0.00,,---,0.00,VWS V14.01,2013-09-23 09:27:00,
2013-09-23 05:32:00,48.9,44.0,29.89,WNW,282,9.0,9.0,83,0.00,,---,0.00,VWS V14.01,2013-09-23 09:32:00,
2013-09-23 05:37:00,48.7,43.8,29.90,WSW,237,4.0,7.0,83,0.00,,---,0.00,VWS V14.01,2013-09-23 09:37:00,
2013-09-23 05:42:00,48.5,43.9,29.90,NW,312,1.0,14.0,84,0.00,,---,0.00,VWS V14.01,2013-09-23 09:42:00,
2013-09-23 05:48:00,48.4,43.8,29.90,WNW,291,4.0,12.0,84,0.00,,---,0.00,VWS V14.01,2013-09-23 09:48:00,
2013-09-23 05:53:00,48.5,43.9,29.90,NNW,329,2.0,14.0,84,0.00,,---,0.00,VWS V14.01,2013-09-23 09:53:00,
2013-09-23 05:58:00,48.6,44.0,29.90,WNW,287,4.0,13.0,84,0.00,,---,0.00,VWS V14.01,2013-09-23 09:58:00,
2013-09-23 06:03:00,48.6,44.0,29.90,WNW,300,5.0,11.0,84,0.00,,---,0.00,VWS V14.01,2013-09-23 10:03:00,
2013-09-23 06:08:00,48.5,43.9,29.91,WNW,293,3.0,10.0,84,0.00,,---,0.00,VWS V14.01,2013-09-23 10:08:00,
2013-09-23 06:13:00,48.5,43.9,29.91,NW,320,0.0,9.0,84,0.00,,---,0.00,VWS V14.01,2013-09-23 10:13:00,
2013-09-23 06:18:00,48.3,43.4,29.91,WNW,285,4.0,9.0,83,0.00,,---,0.00,VWS V14.01,2013-09-23 10:18:00,
2013-09-23 06:23:00,48.2,43.6,29.91,WNW,293,1.0,8.0,84,0.00,,---,0.00,VWS V14.01,2013-09-23 10:23:00,
2013-09-23 06:28:00,48.1,43.5,29.91,NW,306,1.0,7.0,84,0.00,,---,0.00,VWS V14.01,2013-09-23 10:28:00,
2013-09-23 06:33:00,48.1,43.5,29.91,NNW,328,1.0,9.0,84,0.00,,---,0.00,VWS V14.01,2013-09-23 10:33:00,
2013-09-23 06:38:00,48.0,43.4,29.92,WNW,294,4.0,8.0,84,0.00,,---,0.00,VWS V14.01,2013-09-23 10:38:00,
2013-09-23 06:43:00,48.0,43.4,29.91,NW,323,4.0,6.0,84,0.00,,---,0.00,VWS V14.01,2013-09-23 10:43:00,
2013-09-23 06:48:00,47.8,43.2,29.92,West,268,3.0,4.0,84,0.00,,---,0.00,VWS V14.01,2013-09-23 10:48:00,
2013-09-23 06:53:00,47.7,43.1,29.92,NW,310,3.0,5.0,84,0.00,,---,0.00,VWS V14.01,2013-09-23 10:53:00,
2013-09-23 06:58:00,47.6,43.3,29.92,WNW,296,5.0,9.0,85,0.00,,---,0.00,VWS V14.01,2013-09-23 10:58:00,
2013-09-23 07:03:00,47.6,43.3,29.92,WNW,293,2.0,9.0,85,0.00,,---,0.00,VWS V14.01,2013-09-23 11:03:00,
2013-09-23 07:08:00,47.6,43.0,29.93,WNW,301,5.0,12.0,84,0.00,,---,0.00,VWS V14.01,2013-09-23 11:08:00,
2013-09-23 07:13:00,47.7,43.1,29.93,WNW,296,2.0,11.0,84,0.00,,---,0.00,VWS V14.01,2013-09-23 11:13:00,
2013-09-23 07:18:00,47.8,43.2,29.93,WNW,290,5.0,9.0,84,0.00,,---,0.00,VWS V14.01,2013-09-23 11:18:00,
2013-09-23 07:23:00,47.9,43.3,29.93,WNW,293,2.0,13.0,84,0.00,,---,0.00,VWS V14.01,2013-09-23 11:23:00,
2013-09-23 07:28:00,48.2,43.3,29.93,WNW,285,10.0,12.0,83,0.00,,---,0.00,VWS V14.01,2013-09-23 11:28:00,
2013-09-23 07:33:00,48.5,43.3,29.93,NW,310,6.0,12.0,82,0.00,,---,0.00,VWS V14.01,2013-09-23 11:33:00,
2013-09-23 07:38:00,48.8,43.6,29.93,WNW,285,3.0,12.0,82,0.00,,---,0.00,VWS V14.01,2013-09-23 11:38:00,
2013-09-23 07:44:00,49.2,43.6,29.92,NW,314,3.0,14.0,81,0.00,,---,0.00,VWS V14.01,2013-09-23 11:44:00,
2013-09-23 07:49:00,49.5,43.6,29.93,WNW,287,4.0,12.0,80,0.00,,---,0.00,VWS V14.01,2013-09-23 11:49:00,
2013-09-23 07:54:00,49.9,44.0,29.93,NW,324,14.0,17.0,80,0.00,,---,0.00,VWS V14.01,2013-09-23 11:54:00,
2013-09-23 07:59:00,50.1,43.8,29.93,West,260,8.0,11.0,79,0.00,,---,0.00,VWS V14.01,2013-09-23 11:59:00,
2013-09-23 08:04:00,50.3,43.7,29.93,NW,312,7.0,17.0,78,0.00,,---,0.00,VWS V14.01,2013-09-23 12:04:00,
2013-09-23 08:09:00,50.5,43.6,29.93,NNW,332,11.0,13.0,77,0.00,,---,0.00,VWS V14.01,2013-09-23 12:09:00,
2013-09-23 08:14:00,50.7,43.8,29.93,NW,309,6.0,14.0,77,0.00,,---,0.00,VWS V14.01,2013-09-23 12:14:00,
2013-09-23 08:19:00,51.0,43.7,29.93,NW,314,4.0,14.0,76,0.00,,---,0.00,VWS V14.01,2013-09-23 12:19:00,
2013-09-23 08:24:00,51.3,44.0,29.93,NW,323,14.0,14.0,76,0.00,,---,0.00,VWS V14.01,2013-09-23 12:24:00,
2013-09-23 08:29:00,51.4,43.4,29.93,WNW,297,15.0,15.0,74,0.00,,---,0.00,VWS V14.01,2013-09-23 12:29:00,
2013-09-23 08:34:00,51.6,43.6,29.93,North,357,6.0,16.0,74,0.00,,---,0.00,VWS V14.01,2013-09-23 12:34:00,
2013-09-23 08:39:00,51.9,43.5,29.93,WNW,285,9.0,11.0,73,0.00,,---,0.00,VWS V14.01,2013-09-23 12:39:00,
2013-09-23 08:49:00,52.4,44.4,29.94,NW,317,4.0,12.0,74,0.00,,---,0.00,VWS V14.01,2013-09-23 12:49:00,
2013-09-23 08:54:00,52.3,42.8,29.94,WNW,284,10.0,17.0,70,0.00,,---,0.00,VWS V14.01,2013-09-23 12:54:00,
2013-09-23 08:59:00,52.3,43.5,29.93,NNW,339,5.0,13.0,72,0.00,,---,0.00,VWS V14.01,2013-09-23 12:59:00,
2013-09-23 09:04:00,52.6,43.5,29.93,NW,322,4.0,16.0,71,0.00,,---,0.00,VWS V14.01,2013-09-23 13:04:00,
2013-09-23 09:09:00,52.8,43.7,29.94,NW,323,2.0,13.0,71,0.00,,---,0.00,VWS V14.01,2013-09-23 13:09:00,
2013-09-23 09:14:00,53.1,44.3,29.94,NW,325,5.0,14.0,72,0.00,,---,0.00,VWS V14.01,2013-09-23 13:14:00,
2013-09-23 09:19:00,53.4,43.5,29.94,NW,315,2.0,11.0,69,0.00,,---,0.00,VWS V14.01,2013-09-23 13:19:00,
2013-09-23 09:24:00,53.5,43.2,29.94,WNW,297,7.0,16.0,68,0.00,,---,0.00,VWS V14.01,2013-09-23 13:24:00,
2013-09-23 09:31:00,53.8,44.3,29.94,NNW,331,7.0,12.0,70,0.00,,---,0.00,VWS V14.01,2013-09-23 13:31:00,
2013-09-23 09:37:00,53.9,43.2,29.93,WNW,303,9.0,15.0,67,0.00,,---,0.00,VWS V14.01,2013-09-23 13:37:00,
2013-09-23 09:42:00,53.9,42.8,29.93,NW,316,10.0,18.0,66,0.00,,---,0.00,VWS V14.01,2013-09-23 13:42:00,
2013-09-23 09:47:00,54.1,43.4,29.93,NNW,327,5.0,16.0,67,0.00,,---,0.00,VWS V14.01,2013-09-23 13:47:00,
2013-09-23 09:52:00,54.3,44.0,29.93,NW,307,8.0,14.0,68,0.00,,---,0.00,VWS V14.01,2013-09-23 13:52:00,
2013-09-23 09:57:00,54.5,42.6,29.94,NW,305,5.0,14.0,64,0.00,,---,0.00,VWS V14.01,2013-09-23 13:57:00,
2013-09-23 10:02:00,54.6,43.1,29.94,NNW,331,7.0,13.0,65,0.00,,---,0.00,VWS V14.01,2013-09-23 14:02:00,
2013-09-23 10:07:00,54.5,43.4,29.94,WNW,293,11.0,21.0,66,0.00,,---,0.00,VWS V14.01,2013-09-23 14:07:00,
2013-09-23 10:12:00,54.5,42.6,29.94,NW,311,14.0,19.0,64,0.00,,---,0.00,VWS V14.01,2013-09-23 14:12:00,
2013-09-23 10:17:00,54.7,43.6,29.94,NW,326,9.0,15.0,66,0.00,,---,0.00,VWS V14.01,2013-09-23 14:17:00,
2013-09-23 10:22:00,54.9,43.4,29.93,NNW,347,3.0,11.0,65,0.00,,---,0.00,VWS V14.01,2013-09-23 14:22:00,
2013-09-23 10:27:00,55.2,43.7,29.93,NW,315,10.0,13.0,65,0.00,,---,0.00,VWS V14.01,2013-09-23 14:27:00,
2013-09-23 10:32:00,55.4,43.4,29.93,NW,325,1.0,17.0,64,0.00,,---,0.00,VWS V14.01,2013-09-23 14:32:00,
2013-09-23 10:37:00,55.5,43.5,29.93,NW,312,3.0,14.0,64,0.00,,---,0.00,VWS V14.01,2013-09-23 14:37:00,
2013-09-23 10:43:00,55.6,43.2,29.93,NNW,341,1.0,11.0,63,0.00,,---,0.00,VWS V14.01,2013-09-23 14:43:00,
2013-09-23 10:48:00,55.8,43.8,29.93,NW,308,5.0,13.0,64,0.00,,---,0.00,VWS V14.01,2013-09-23 14:48:00,
2013-09-23 10:53:00,56.0,43.2,29.93,NW,318,6.0,12.0,62,0.00,,---,0.00,VWS V14.01,2013-09-23 14:53:00,
2013-09-23 10:58:00,56.2,43.0,29.93,NW,316,2.0,12.0,61,0.00,,---,0.00,VWS V14.01,2013-09-23 14:58:00,
2013-09-23 11:03:00,56.3,43.9,29.93,WNW,291,11.0,14.0,63,0.00,,---,0.00,VWS V14.01,2013-09-23 15:03:00,
2013-09-23 11:08:00,56.7,43.8,29.93,WNW,291,2.0,13.0,62,0.00,,---,0.00,VWS V14.01,2013-09-23 15:08:00,
2013-09-23 11:13:00,57.0,43.7,29.93,NW,312,5.0,11.0,61,0.00,,---,0.00,VWS V14.01,2013-09-23 15:13:00,
2013-09-23 11:18:00,57.2,43.9,29.93,NNW,334,5.0,11.0,61,0.00,,---,0.00,VWS V14.01,2013-09-23 15:18:00,
2013-09-23 11:23:00,57.3,43.5,29.93,WNW,292,4.0,11.0,60,0.00,,---,0.00,VWS V14.01,2013-09-23 15:23:00,
2013-09-23 11:28:00,57.5,43.3,29.93,NW,316,5.0,12.0,59,0.00,,---,0.00,VWS V14.01,2013-09-23 15:28:00,
2013-09-23 11:33:00,57.8,44.5,29.93,NW,316,3.0,8.0,61,0.00,,---,0.00,VWS V14.01,2013-09-23 15:33:00,
2013-09-23 11:38:00,58.0,44.2,29.93,WNW,297,1.0,11.0,60,0.00,,---,0.00,VWS V14.01,2013-09-23 15:38:00,
2013-09-23 11:43:00,58.2,44.0,29.93,WNW,301,2.0,12.0,59,0.00,,---,0.00,VWS V14.01,2013-09-23 15:43:00,
2013-09-23 11:48:00,58.4,44.6,29.93,WNW,283,5.0,9.0,60,0.00,,---,0.00,VWS V14.01,2013-09-23 15:48:00,
2013-09-23 11:53:00,58.6,44.3,29.93,West,276,5.0,10.0,59,0.00,,---,0.00,VWS V14.01,2013-09-23 15:53:00,
2013-09-23 11:58:00,59.0,44.7,29.93,NNW,337,6.0,10.0,59,0.00,,---,0.00,VWS V14.01,2013-09-23 15:58:00,
2013-09-23 12:03:00,58.9,44.2,29.93,NNW,334,5.0,6.0,58,0.00,,---,0.00,VWS V14.01,2013-09-23 16:03:00,
2013-09-23 12:08:00,58.9,43.7,29.93,WNW,300,2.0,7.0,57,0.00,,---,0.00,VWS V14.01,2013-09-23 16:08:00,
2013-09-23 12:13:00,59.1,43.9,29.93,NW,306,9.0,13.0,57,0.00,,---,0.00,VWS V14.01,2013-09-23 16:13:00,
2013-09-23 12:18:00,59.1,44.3,29.93,NNW,331,2.0,9.0,58,0.00,,---,0.00,VWS V14.01,2013-09-23 16:18:00,
2013-09-23 12:23:00,59.2,44.9,29.93,WNW,295,1.0,11.0,59,0.00,,---,0.00,VWS V14.01,2013-09-23 16:23:00,
2013-09-23 12:28:00,59.6,44.8,29.93,WSW,251,3.0,9.0,58,0.00,,---,0.00,VWS V14.01,2013-09-23 16:28:00,
2013-09-23 12:33:00,59.8,44.1,29.93,West,276,4.0,12.0,56,0.00,,---,0.00,VWS V14.01,2013-09-23 16:33:00,
2013-09-23 12:38:00,59.7,44.9,29.93,NW,320,3.0,9.0,58,0.00,,---,0.00,VWS V14.01,2013-09-23 16:38:00,
2013-09-23 12:44:00,59.6,43.9,29.93,NNW,328,5.0,7.0,56,0.00,,---,0.00,VWS V14.01,2013-09-23 16:44:00,
2013-09-23 12:49:00,59.6,44.4,29.93,NNW,330,1.0,6.0,57,0.00,,---,0.00,VWS V14.01,2013-09-23 16:49:00,
2013-09-23 12:54:00,60.1,44.8,29.93,NW,310,4.0,9.0,57,0.00,,---,0.00,VWS V14.01,2013-09-23 16:54:00,
2013-09-23 12:59:00,60.3,44.1,29.93,NW,324,4.0,7.0,55,0.00,,---,0.00,VWS V14.01,2013-09-23 16:59:00,
2013-09-23 13:04:00,60.2,44.9,29.93,NW,306,2.0,11.0,57,0.00,,---,0.00,VWS V14.01,2013-09-23 17:04:00,
2013-09-23 13:09:00,60.4,45.6,29.93,NW,315,3.0,6.0,58,0.00,,---,0.00,VWS V14.01,2013-09-23 17:09:00,
2013-09-23 13:14:00,60.5,45.7,29.92,North,355,4.0,7.0,58,0.00,,---,0.00,VWS V14.01,2013-09-23 17:14:00,
2013-09-23 13:19:00,60.0,44.3,29.92,NW,304,2.0,9.0,56,0.00,,---,0.00,VWS V14.01,2013-09-23 17:19:00,
2013-09-23 13:26:00,60.6,45.3,29.93,NNW,337,3.0,8.0,57,0.00,,---,0.00,VWS V14.01,2013-09-23 17:26:00,
2013-09-23 13:31:00,60.6,44.4,29.93,NW,308,5.0,7.0,55,0.00,,---,0.00,VWS V14.01,2013-09-23 17:31:00,
2013-09-23 13:36:00,60.5,44.7,29.92,WNW,292,1.0,3.0,56,0.00,,---,0.00,VWS V14.01,2013-09-23 17:36:00,
2013-09-23 13:41:00,60.8,45.0,29.92,West,268,4.0,8.0,56,0.00,,---,0.00,VWS V14.01,2013-09-23 17:41:00,
2013-09-23 13:48:00,61.2,44.9,29.92,NW,311,5.0,12.0,55,0.00,,---,0.00,VWS V14.01,2013-09-23 17:48:00,
2013-09-23 13:53:00,61.5,45.2,29.92,West,281,2.0,9.0,55,0.00,,---,0.00,VWS V14.01,2013-09-23 17:53:00,
2013-09-23 13:58:00,62.2,46.8,29.93,WNW,284,3.0,4.0,57,0.00,,---,0.00,VWS V14.01,2013-09-23 17:58:00,
2013-09-23 14:03:00,62.1,44.8,29.92,WNW,292,3.0,6.0,53,0.00,,---,0.00,VWS V14.01,2013-09-23 18:03:00,
2013-09-23 14:08:00,62.3,44.5,29.92,West,281,3.0,5.0,52,0.00,,---,0.00,VWS V14.01,2013-09-23 18:08:00,
2013-09-23 14:13:00,62.1,45.8,29.93,NW,304,3.0,9.0,55,0.00,,---,0.00,VWS V14.01,2013-09-23 18:13:00,
2013-09-23 14:18:00,62.5,46.1,29.93,West,266,4.0,7.0,55,0.00,,---,0.00,VWS V14.01,2013-09-23 18:18:00,
2013-09-23 14:23:00,62.9,45.5,29.92,NW,310,4.0,9.0,53,0.00,,---,0.00,VWS V14.01,2013-09-23 18:23:00,
2013-09-23 14:28:00,63.2,46.8,29.92,WNW,303,9.0,9.0,55,0.00,,---,0.00,VWS V14.01,2013-09-23 18:28:00,
2013-09-23 14:33:00,63.0,46.1,29.92,WNW,297,3.0,7.0,54,0.00,,---,0.00,VWS V14.01,2013-09-23 18:33:00,
2013-09-23 14:38:00,62.7,44.3,29.92,WNW,298,5.0,13.0,51,0.00,,---,0.00,VWS V14.01,2013-09-23 18:38:00,
2013-09-23 14:45:00,62.5,45.2,29.92,WNW,283,1.0,11.0,53,0.00,,---,0.00,VWS V14.01,2013-09-23 18:45:00,
2013-09-23 14:50:00,63.0,45.6,29.92,WNW,295,7.0,7.0,53,0.00,,---,0.00,VWS V14.01,2013-09-23 18:50:00,
2013-09-23 14:55:00,63.2,45.3,29.92,WNW,285,0.0,10.0,52,0.00,,---,0.00,VWS V14.01,2013-09-23 18:55:00,
2013-09-23 15:00:00,63.4,46.5,29.91,NW,305,1.0,9.0,54,0.00,,---,0.00,VWS V14.01,2013-09-23 19:00:00,
2013-09-23 15:05:00,63.6,45.7,29.92,NW,306,2.0,5.0,52,0.00,,---,0.00,VWS V14.01,2013-09-23 19:05:00,
2013-09-23 15:10:00,63.4,45.0,29.91,NW,305,6.0,7.0,51,0.00,,---,0.00,VWS V14.01,2013-09-23 19:10:00,
2013-09-23 15:15:00,63.4,46.0,29.91,NW,305,2.0,6.0,53,0.00,,---,0.00,VWS V14.01,2013-09-23 19:15:00,
2013-09-23 15:20:00,63.3,45.4,29.91,NNW,336,1.0,9.0,52,0.00,,---,0.00,VWS V14.01,2013-09-23 19:20:00,
2013-09-23 15:25:00,63.5,46.6,29.91,WNW,295,3.0,6.0,54,0.00,,---,0.00,VWS V14.01,2013-09-23 19:25:00,
2013-09-23 15:30:00,64.0,45.5,29.91,NW,304,4.0,7.0,51,0.00,,---,0.00,VWS V14.01,2013-09-23 19:30:00,
2013-09-23 15:35:00,63.9,46.0,29.91,NW,308,2.0,6.0,52,0.00,,---,0.00,VWS V14.01,2013-09-23 19:35:00,
2013-09-23 15:40:00,63.4,46.5,29.91,WNW,284,6.0,10.0,54,0.00,,---,0.00,VWS V14.01,2013-09-23 19:40:00,
2013-09-23 15:45:00,63.4,45.5,29.91,NW,319,5.0,5.0,52,0.00,,---,0.00,VWS V14.01,2013-09-23 19:45:00,
2013-09-23 15:50:00,63.2,45.8,29.91,NW,321,1.0,6.0,53,0.00,,---,0.00,VWS V14.01,2013-09-23 19:50:00,
2013-09-23 15:56:00,63.3,46.4,29.91,NW,320,4.0,7.0,54,0.00,,---,0.00,VWS V14.01,2013-09-23 19:56:00,
2013-09-23 16:01:00,63.8,47.3,29.91,WNW,294,4.0,7.0,55,0.00,,---,0.00,VWS V14.01,2013-09-23 20:01:00,
2013-09-23 16:06:00,63.8,46.4,29.91,WNW,291,0.0,2.0,53,0.00,,---,0.00,VWS V14.01,2013-09-23 20:06:00,
2013-09-23 16:11:00,63.9,46.0,29.91,NW,322,3.0,6.0,52,0.00,,---,0.00,VWS V14.01,2013-09-23 20:11:00,
2013-09-23 16:16:00,63.7,46.8,29.91,NNW,328,3.0,6.0,54,0.00,,---,0.00,VWS V14.01,2013-09-23 20:16:00,
2013-09-23 16:21:00,63.5,46.1,29.91,NW,306,2.0,6.0,53,0.00,,---,0.00,VWS V14.01,2013-09-23 20:21:00,
2013-09-23 16:26:00,63.4,46.0,29.91,NW,315,1.0,7.0,53,0.00,,---,0.00,VWS V14.01,2013-09-23 20:26:00,
2013-09-23 16:31:00,63.4,47.0,29.91,ENE,57,4.0,8.0,55,0.00,,---,0.00,VWS V14.01,2013-09-23 20:31:00,
2013-09-23 16:36:00,63.2,45.8,29.91,NNW,339,5.0,9.0,53,0.00,,---,0.00,VWS V14.01,2013-09-23 20:36:00,
2013-09-23 16:41:00,63.0,46.1,29.91,NW,307,2.0,7.0,54,0.00,,---,0.00,VWS V14.01,2013-09-23 20:41:00,
2013-09-23 16:46:00,63.0,46.6,29.91,NNW,330,0.0,3.0,55,0.00,,---,0.00,VWS V14.01,2013-09-23 20:46:00,
2013-09-23 16:51:00,63.1,46.7,29.91,NW,325,4.0,6.0,55,0.00,,---,0.00,VWS V14.01,2013-09-23 20:51:00,
2013-09-23 16:56:00,63.2,46.8,29.92,WNW,299,5.0,5.0,55,0.00,,---,0.00,VWS V14.01,2013-09-23 20:56:00,
2013-09-23 17:01:00,63.1,45.7,29.92,NW,312,3.0,9.0,53,0.00,,---,0.00,VWS V14.01,2013-09-23 21:01:00,
2013-09-23 17:06:00,63.1,45.7,29.92,NW,314,3.0,5.0,53,0.00,,---,0.00,VWS V14.01,2013-09-23 21:06:00,
2013-09-23 17:11:00,63.1,46.2,29.92,NW,312,4.0,7.0,54,0.00,,---,0.00,VWS V14.01,2013-09-23 21:11:00,
2013-09-23 17:16:00,62.8,46.4,29.92,NW,318,2.0,5.0,55,0.00,,---,0.00,VWS V14.01,2013-09-23 21:16:00,
2013-09-23 17:21:00,62.6,46.7,29.92,NNW,327,3.0,7.0,56,0.00,,---,0.00,VWS V14.01,2013-09-23 21:21:00,
2013-09-23 17:26:00,62.4,46.5,29.92,NW,324,2.0,3.0,56,0.00,,---,0.00,VWS V14.01,2013-09-23 21:26:00,
2013-09-23 17:31:00,62.5,47.1,29.92,WNW,283,2.0,6.0,57,0.00,,---,0.00,VWS V14.01,2013-09-23 21:31:00,
2013-09-23 17:36:00,62.5,47.5,29.93,NW,306,1.0,2.0,58,0.00,,---,0.00,VWS V14.01,2013-09-23 21:36:00,
2013-09-23 17:41:00,62.2,46.8,29.93,NW,319,4.0,6.0,57,0.00,,---,0.00,VWS V14.01,2013-09-23 21:41:00,
2013-09-23 17:46:00,62.1,47.2,29.93,NW,307,10.0,10.0,58,0.00,,---,0.00,VWS V14.01,2013-09-23 21:46:00,
2013-09-23 17:51:00,61.8,46.4,29.94,WNW,299,2.0,7.0,57,0.00,,---,0.00,VWS V14.01,2013-09-23 21:51:00,
2013-09-23 17:56:00,61.6,46.7,29.94,NW,319,2.0,4.0,58,0.00,,---,0.00,VWS V14.01,2013-09-23 21:56:00,
2013-09-23 18:01:00,61.5,46.6,29.94,NW,312,4.0,4.0,58,0.00,,---,0.00,VWS V14.01,2013-09-23 22:01:00,
2013-09-23 18:06:00,61.3,47.8,29.95,NW,312,2.0,3.0,61,0.00,,---,0.00,VWS V14.01,2013-09-23 22:06:00,
2013-09-23 18:11:00,61.1,47.1,29.95,NW,305,3.0,5.0,60,0.00,,---,0.00,VWS V14.01,2013-09-23 22:11:00,
2013-09-23 18:16:00,61.0,47.5,29.95,NW,305,0.0,4.0,61,0.00,,---,0.00,VWS V14.01,2013-09-23 22:16:00,
2013-09-23 18:21:00,60.8,47.3,29.94,NW,305,5.0,5.0,61,0.00,,---,0.00,VWS V14.01,2013-09-23 22:21:00,
2013-09-23 18:26:00,60.7,47.6,29.95,NW,306,1.0,4.0,62,0.00,,---,0.00,VWS V14.01,2013-09-23 22:26:00,
2013-09-23 18:31:00,60.5,47.9,29.95,NW,307,1.0,4.0,63,0.00,,---,0.00,VWS V14.01,2013-09-23 22:31:00,
2013-09-23 18:36:00,60.2,48.0,29.95,NW,306,0.0,4.0,64,0.00,,---,0.00,VWS V14.01,2013-09-23 22:36:00,
2013-09-23 18:41:00,60.0,47.8,29.95,NW,306,1.0,4.0,64,0.00,,---,0.00,VWS V14.01,2013-09-23 22:41:00,
2013-09-23 18:46:00,59.7,47.9,29.95,NW,305,0.0,3.0,65,0.00,,---,0.00,VWS V14.01,2013-09-23 22:46:00,
2013-09-23 18:51:00,59.5,48.2,29.95,NW,308,1.0,5.0,66,0.00,,---,0.00,VWS V14.01,2013-09-23 22:51:00,
2013-09-23 18:56:00,59.4,48.0,29.95,NW,308,0.0,2.0,66,0.00,,---,0.00,VWS V14.01,2013-09-23 22:56:00,
2013-09-23 19:01:00,59.2,47.9,29.96,NW,307,2.0,5.0,66,0.00,,---,0.00,VWS V14.01,2013-09-23 23:01:00,
2013-09-23 19:06:00,59.0,48.5,29.96,NW,307,1.0,5.0,68,0.00,,---,0.00,VWS V14.01,2013-09-23 23:06:00,
2013-09-23 19:11:00,58.9,48.0,29.96,WNW,301,2.0,2.0,67,0.00,,---,0.00,VWS V14.01,2013-09-23 23:11:00,
2013-09-23 19:16:00,58.8,47.9,29.96,NW,305,4.0,4.0,67,0.00,,---,0.00,VWS V14.01,2013-09-23 23:16:00,
2013-09-23 19:21:00,58.8,48.3,29.96,NW,305,1.0,6.0,68,0.00,,---,0.00,VWS V14.01,2013-09-23 23:21:00,
2013-09-23 19:26:00,58.8,48.3,29.97,NW,319,4.0,6.0,68,0.00,,---,0.00,VWS V14.01,2013-09-23 23:26:00,
2013-09-23 19:31:00,58.8,48.3,29.97,NW,316,3.0,6.0,68,0.00,,---,0.00,VWS V14.01,2013-09-23 23:31:00,
2013-09-23 19:36:00,58.7,48.6,29.97,NW,316,1.0,4.0,69,0.00,,---,0.00,VWS V14.01,2013-09-23 23:36:00,
2013-09-23 19:41:00,58.5,48.4,29.97,NW,315,3.0,5.0,69,0.00,,---,0.00,VWS V14.01,2013-09-23 23:41:00,
2013-09-23 19:46:00,58.4,48.7,29.97,NW,316,4.0,4.0,70,0.00,,---,0.00,VWS V14.01,2013-09-23 23:46:00,
2013-09-23 19:51:00,58.2,48.5,29.97,NW,316,0.0,4.0,70,0.00,,---,0.00,VWS V14.01,2013-09-23 23:51:00,
2013-09-23 19:56:00,58.0,48.7,29.97,NW,314,4.0,5.0,71,0.00,,---,0.00,VWS V14.01,2013-09-23 23:56:00,
2013-09-23 20:01:00,57.8,49.2,29.97,NW,313,4.0,5.0,73,0.00,,---,0.00,VWS V14.01,2013-09-24 00:01:00,
2013-09-23 20:06:00,57.4,49.2,29.98,NW,310,1.0,6.0,74,0.00,,---,0.00,VWS V14.01,2013-09-24 00:06:00,
2013-09-23 20:11:00,57.0,48.8,29.98,NW,308,1.0,5.0,74,0.00,,---,0.00,VWS V14.01,2013-09-24 00:11:00,
2013-09-23 20:16:00,56.8,49.0,29.98,NW,308,0.0,3.0,75,0.00,,---,0.00,VWS V14.01,2013-09-24 00:16:00,
2013-09-23 20:21:00,56.5,48.7,29.98,NW,308,2.0,4.0,75,0.00,,---,0.00,VWS V14.01,2013-09-24 00:21:00,
2013-09-23 20:26:00,56.2,48.4,29.98,NW,311,4.0,6.0,75,0.00,,---,0.00,VWS V14.01,2013-09-24 00:26:00,
2013-09-23 20:31:00,56.1,48.3,29.99,NW,312,2.0,6.0,75,0.00,,---,0.00,VWS V14.01,2013-09-24 00:31:00,
2013-09-23 20:36:00,55.9,48.8,29.99,NW,311,4.0,4.0,77,0.00,,---,0.00,VWS V14.01,2013-09-24 00:36:00,
2013-09-23 20:41:00,55.8,48.4,29.99,NW,304,2.0,7.0,76,0.00,,---,0.00,VWS V14.01,2013-09-24 00:41:00,
2013-09-23 20:47:00,55.7,47.9,29.99,NW,314,5.0,5.0,75,0.00,,---,0.00,VWS V14.01,2013-09-24 00:47:00,
2013-09-23 20:52:00,55.7,47.9,29.99,NW,312,3.0,8.0,75,0.00,,---,0.00,VWS V14.01,2013-09-24 00:52:00,
2013-09-23 20:58:00,55.7,48.3,29.99,NW,318,4.0,6.0,76,0.00,,---,0.00,VWS V14.01,2013-09-24 00:58:00,
2013-09-23 21:03:00,55.5,47.7,29.99,WNW,291,1.0,7.0,75,0.00,,---,0.00,VWS V14.01,2013-09-24 01:03:00,
2013-09-23 21:08:00,55.4,48.0,29.99,NW,320,5.0,8.0,76,0.00,,---,0.00,VWS V14.01,2013-09-24 01:08:00,
2013-09-23 21:12:00,55.3,48.2,30.00,NW,314,3.0,6.0,77,0.00,,---,0.00,VWS V14.01,2013-09-24 01:12:00,
2013-09-23 21:17:00,55.1,48.0,30.00,NW,307,3.0,7.0,77,0.00,,---,0.00,VWS V14.01,2013-09-24 01:17:00,
2013-09-23 21:23:00,54.8,47.7,30.00,NW,308,2.0,7.0,77,0.00,,---,0.00,VWS V14.01,2013-09-24 01:23:00,
2013-09-23 21:28:00,54.7,48.0,30.00,NW,314,7.0,7.0,78,0.00,,---,0.00,VWS V14.01,2013-09-24 01:28:00,
2013-09-23 21:33:00,54.5,47.8,30.00,NW,312,4.0,7.0,78,0.00,,---,0.00,VWS V14.01,2013-09-24 01:33:00,
2013-09-23 21:38:00,54.3,47.9,30.00,NW,308,1.0,6.0,79,0.00,,---,0.00,VWS V14.01,2013-09-24 01:38:00,
2013-09-23 21:43:00,54.1,48.1,30.01,NW,326,2.0,4.0,80,0.00,,---,0.00,VWS V14.01,2013-09-24 01:43:00,
2013-09-23 21:48:00,53.9,48.9,30.01,NNW,328,0.0,8.0,83,0.00,,---,0.00,VWS V14.01,2013-09-24 01:48:00,
2013-09-23 21:53:00,53.8,47.8,30.01,NW,320,1.0,6.0,80,0.00,,---,0.00,VWS V14.01,2013-09-24 01:53:00,
2013-09-23 21:58:00,53.6,47.9,30.01,NNW,327,5.0,5.0,81,0.00,,---,0.00,VWS V14.01,2013-09-24 01:58:00,
2013-09-23 22:03:00,53.5,47.2,30.01,NW,320,6.0,9.0,79,0.00,,---,0.00,VWS V14.01,2013-09-24 02:03:00,
2013-09-23 22:08:00,53.3,47.3,30.01,NW,324,3.0,6.0,80,0.00,,---,0.00,VWS V14.01,2013-09-24 02:08:00,
2013-09-23 22:13:00,53.1,47.1,30.01,NW,319,4.0,7.0,80,0.00,,---,0.00,VWS V14.01,2013-09-24 02:13:00,
2013-09-23 22:18:00,52.9,46.9,30.01,NNW,337,2.0,7.0,80,0.00,,---,0.00,VWS V14.01,2013-09-24 02:18:00,
2013-09-23 22:23:00,52.8,46.5,30.01,NW,311,4.0,9.0,79,0.00,,---,0.00,VWS V14.01,2013-09-24 02:23:00,
2013-09-23 22:28:00,52.6,46.9,30.01,NW,305,5.0,6.0,81,0.00,,---,0.00,VWS V14.01,2013-09-24 02:28:00,
2013-09-23 22:33:00,52.3,46.3,30.01,NW,310,2.0,9.0,80,0.00,,---,0.00,VWS V14.01,2013-09-24 02:33:00,
2013-09-23 22:38:00,52.2,45.9,30.01,NNW,334,6.0,10.0,79,0.00,,---,0.00,VWS V14.01,2013-09-24 02:38:00,
2013-09-23 22:44:00,52.0,45.7,30.01,NNW,330,2.0,5.0,79,0.00,,---,0.00,VWS V14.01,2013-09-24 02:44:00,
2013-09-23 22:49:00,51.7,45.7,30.01,NW,315,0.0,10.0,80,0.00,,---,0.00,VWS V14.01,2013-09-24 02:49:00,
2013-09-23 22:56:00,51.4,45.8,30.01,NNW,332,4.0,7.0,81,0.00,,---,0.00,VWS V14.01,2013-09-24 02:56:00,
2013-09-23 23:01:00,51.3,45.3,30.01,NW,322,1.0,5.0,80,0.00,,---,0.00,VWS V14.01,2013-09-24 03:01:00,
2013-09-23 23:06:00,51.2,45.6,30.01,NW,324,0.0,4.0,81,0.00,,---,0.00,VWS V14.01,2013-09-24 03:06:00,
2013-09-23 23:11:00,51.1,45.2,30.01,North,355,3.0,8.0,80,0.00,,---,0.00,VWS V14.01,2013-09-24 03:11:00,
2013-09-23 23:16:00,51.0,45.1,30.01,NNW,339,6.0,10.0,80,0.00,,---,0.00,VWS V14.01,2013-09-24 03:16:00,
2013-09-23 23:21:00,50.9,45.0,30.02,NW,318,4.0,9.0,80,0.00,,---,0.00,VWS V14.01,2013-09-24 03:21:00,
2013-09-23 23:26:00,50.8,44.5,30.02,NW,320,1.0,7.0,79,0.00,,---,0.00,VWS V14.01,2013-09-24 03:26:00,
2013-09-23 23:32:00,50.6,44.3,30.02,NE,46,3.0,10.0,79,0.00,,---,0.00,VWS V14.01,2013-09-24 03:32:00,
2013-09-23 23:37:00,50.6,44.0,30.02,NNW,328,8.0,12.0,78,0.00,,---,0.00,VWS V14.01,2013-09-24 03:37:00,
2013-09-23 23:42:00,50.6,43.3,30.01,WNW,299,10.0,10.0,76,0.00,,---,0.00,VWS V14.01,2013-09-24 03:42:00,
2013-09-23 23:47:00,50.6,43.7,30.01,NW,312,5.0,10.0,77,0.00,,---,0.00,VWS V14.01,2013-09-24 03:47:00,
2013-09-23 23:52:00,50.7,43.1,30.01,WNW,299,6.0,13.0,75,0.00,,---,0.00,VWS V14.01,2013-09-24 03:52:00,
2013-09-23 23:57:00,50.6,43.3,30.01,WNW,303,5.0,10.0,76,0.00,,---,0.00,VWS V14.01,2013-09-24 03:57:00,